[[{"header":{"parameterUnit":"m.s-1","parameterCategory":2,"la1":30.2992,"la2":30.254,"lo1":-89.0895,"lo2":-89.0443,"dy":0.0025,"dx":0.0025,"nx":19,"ny":19,"refTime":"2026-03-09T09:00:00:Z","depth":"0","parameterNumber":2,"parameterNumberName":"U-component_of_CURRENTS"},"data":[0,0,0,-0.2002,-0.2002,-0.1993,-0.1993,-0.1981,-0.1981,0,0,0,0,0,0,0,0,0,0,0,-0.1997,-0.1996,-0.2002,-0.2002,-0.1993,-0.1993,-0.1981,-0.1981,0,0,0,0,0,0,0,0,0,0,0,-0.1997,-0.1996,-0.1996,-0.2002,-0.1993,-0.1993,-0.1981,-0.1987,0,0,0,0,0,0,0,0,0,0,-0.1995,-0.1987,-0.1996,-0.1996,-0.2002,-0.1993,-0.1993,-0.1987,-0.1987,-0.1986,0,-0.1981,0,-0.1986,-0.1981,-0.1981,0,0,0,-0.1998,-0.1988,-0.1992,-0.1996,-0.2002,-0.1993,-0.1996,-0.1987,-0.1986,-0.1985,-0.1981,-0.198,-0.1986,-0.1981,-0.1981,-0.1998,-0.1999,0,0,-0.1998,-0.199,-0.1992,-0.1991,-0.1994,-0.1996,-0.1996,-0.1986,-0.198,-0.1981,-0.198,-0.1986,-0.1981,-0.1981,-0.1998,-0.1998,0,0,0,-0.2002,-0.199,-0.1994,-0.1992,-0.1993,-0.1996,-0.1995,-0.198,-0.1983,-0.198,-0.1985,-0.1981,-0.1981,-0.1998,-0.1998,-0.2019,0,0,0,-0.2002,-0.1993,-0.1994,-0.1988,-0.1993,-0.1986,-0.1989,-0.1983,-0.1983,-0.1986,-0.1981,-0.1981,-0.1998,-0.1998,-0.2018,-0.2022,0,0,0,-0.1998,-0.1992,-0.1991,-0.1988,-0.1988,-0.1986,-0.1988,-0.1983,-0.1986,-0.1981,-0.1981,-0.1997,-0.1998,-0.2017,-0.2021,-0.1997,0,0,0,-0.199,-0.1979,-0.1991,-0.1986,-0.1988,-0.2002,-0.1988,-0.1991,-0.1988,-0.1981,-0.1998,-0.1998,-0.2017,-0.202,-0.1997,-0.1806,-0.1793,0,0,-0.1973,-0.1976,-0.1977,-0.1989,-0.2005,-0.2004,-0.202,-0.2006,-0.1997,-0.1999,-0.1999,-0.2019,-0.2021,-0.1997,-0.184,-0.1825,0,0,0,-0.1971,-0.1969,-0.1977,-0.1989,-0.2007,-0.2025,-0.2021,-0.2022,-0.2022,-0.1999,-0.2025,-0.2025,-0.2009,-0.1894,-0.1883,-0.1774,-0.2001,-0.2001,-0.2001,-0.1921,-0.1951,-0.1959,-0.1995,-0.2013,-0.2039,-0.2049,-0.2051,-0.2041,-0.2048,-0.2047,-0.205,-0.1929,-0.1918,-0.181,-0.2055,-0.2055,-0.2055,-0.2055,-0.1902,-0.1903,-0.1954,-0.1975,-0.2015,-0.2036,-0.2072,-0.2073,-0.2075,-0.2075,-0.2058,-0.1928,-0.1906,-0.1795,-0.2057,-0.2056,-0.2056,-0.2056,-0.2056,-0.1864,-0.1867,-0.1897,-0.1938,-0.198,-0.2028,-0.2047,-0.208,-0.2082,-0.2084,-0.1924,-0.1921,-0.1816,-0.2063,-0.2063,-0.2063,-0.2063,-0.2063,-0.2063,-0.1801,-0.1834,-0.1841,-0.1897,-0.1919,-0.1967,-0.2028,-0.2022,-0.1958,-0.1924,-0.1922,-0.1788,-0.2052,-0.2043,-0.2061,-0.2062,-0.2062,-0.2062,-0.2062,-0.1719,-0.1746,-0.1757,-0.1777,-0.1838,-0.1819,-0.1905,-0.1811,-0.1809,-0.1722,-0.1579,-0.1824,-0.1789,-0.1796,-0.178,-0.173,-0.173,-0.173,-0.173,-0.1644,-0.1668,-0.1672,-0.1694,-0.173,-0.1748,-0.1602,-0.1524,-0.1415,-0.1322,-0.1387,-0.1334,-0.1352,-0.1292,-0.131,-0.1284,-0.111,-0.1109,-0.1109,-0.1568,-0.1598,-0.1576,-0.1635,-0.1678,-0.1631,-0.1408,-0.1182,-0.1053,-0.1082,-0.1279,-0.1305,-0.1233,-0.127,-0.1183,-0.1217,-0.1179,0,0]},{"header":{"parameterUnit":"m.s-1","parameterCategory":2,"la1":30.2992,"la2":30.254,"lo1":-89.0895,"lo2":-89.0443,"dy":0.0025,"dx":0.0025,"nx":19,"ny":19,"refTime":"2026-03-09T09:00:00:Z","depth":"0","parameterNumber":3,"parameterNumberName":"V-component_of_CURRENTS"},"data":[0,0,0,-0.03,-0.0299,-0.0247,-0.0247,-0.0157,-0.0156,0,0,0,0,0,0,0,0,0,0,0,-0.0319,-0.0319,-0.03,-0.0299,-0.0247,-0.0247,-0.0157,-0.0156,0,0,0,0,0,0,0,0,0,0,0,-0.0319,-0.0319,-0.0319,-0.0299,-0.0247,-0.0247,-0.0157,-0.02,0,0,0,0,0,0,0,0,0,0,-0.0253,-0.0281,-0.0319,-0.0319,-0.0299,-0.0247,-0.0247,-0.0202,-0.0197,-0.0177,0,-0.0175,0,-0.0166,-0.015,-0.015,0,0,0,-0.029,-0.0285,-0.0268,-0.0319,-0.0299,-0.0247,-0.0268,-0.02,-0.0194,-0.017,-0.0174,-0.0171,-0.0165,-0.015,-0.0149,-0.0083,-0.0083,0,0,-0.0293,-0.0309,-0.0273,-0.0265,-0.0293,-0.027,-0.0267,-0.0196,-0.0195,-0.0174,-0.0169,-0.0163,-0.0149,-0.0148,-0.0083,-0.0083,0,0,0,-0.0307,-0.0311,-0.0296,-0.0269,-0.0263,-0.0269,-0.0265,-0.0198,-0.0193,-0.0168,-0.0162,-0.0149,-0.0148,-0.0084,-0.0083,-0.0138,0,0,0,-0.0309,-0.032,-0.0298,-0.0306,-0.0265,-0.0234,-0.0268,-0.0198,-0.0189,-0.0163,-0.0149,-0.0147,-0.0084,-0.0083,-0.0137,-0.016,0,0,0,-0.032,-0.0321,-0.0317,-0.0307,-0.0288,-0.0235,-0.0226,-0.0196,-0.0186,-0.015,-0.0147,-0.0084,-0.0083,-0.0136,-0.0158,-0.009,0,0,0,-0.0334,-0.0347,-0.0318,-0.0331,-0.0289,-0.0272,-0.0226,-0.0206,-0.018,-0.0148,-0.0084,-0.0083,-0.0136,-0.0156,-0.009,-0.0005,0.0001,0,0,-0.0362,-0.0351,-0.036,-0.0333,-0.034,-0.0278,-0.0267,-0.0213,-0.0166,-0.0103,-0.0102,-0.0138,-0.0157,-0.009,0.0006,0.0012,0,0,0,-0.0376,-0.0387,-0.0383,-0.0379,-0.0349,-0.0315,-0.0259,-0.0217,-0.0158,-0.015,-0.0118,-0.0128,-0.0084,-0.0032,-0.0027,0.0079,-0.0083,-0.0083,-0.0083,-0.0432,-0.0421,-0.0441,-0.0423,-0.0402,-0.0335,-0.0293,-0.022,-0.0183,-0.0159,-0.0159,-0.0128,-0.0076,-0.0071,0.0036,-0.0142,-0.0143,-0.0143,-0.0143,-0.0494,-0.0513,-0.0488,-0.0505,-0.0453,-0.043,-0.0323,-0.0278,-0.0181,-0.0176,-0.0129,-0.0077,-0.0068,0.0044,-0.0146,-0.0146,-0.0145,-0.0145,-0.0145,-0.0544,-0.0552,-0.0557,-0.0571,-0.055,-0.0486,-0.0413,-0.0336,-0.0227,-0.0195,-0.0067,-0.0064,0.0028,-0.0152,-0.0152,-0.0152,-0.0151,-0.0151,-0.0151,-0.0594,-0.0599,-0.0633,-0.0637,-0.0639,-0.0595,-0.0464,-0.0362,-0.019,-0.0104,-0.0102,0.0061,-0.0129,-0.0135,-0.0148,-0.0149,-0.0149,-0.0149,-0.015,-0.0658,-0.0654,-0.0709,-0.0724,-0.071,-0.0593,-0.0504,-0.0232,-0.012,0.0,0.0169,-0.0019,0.0025,0.0022,0.0022,0.005,0.005,0.005,0.0051,-0.0694,-0.07,-0.0755,-0.0774,-0.0743,-0.0592,-0.0303,-0.0073,0.0179,0.0305,0.0308,0.0319,0.0306,0.0367,0.0357,0.0363,0.0478,0.0479,0.0479,-0.0729,-0.0746,-0.0775,-0.0785,-0.0747,-0.0519,-0.015,0.0206,0.0473,0.0504,0.0439,0.042,0.0439,0.0411,0.0506,0.0483,0.0492,0,0]}],[{"header":{"parameterUnit":"m.s-1","parameterCategory":2,"la1":30.2992,"la2":30.254,"lo1":-89.0895,"lo2":-89.0443,"dy":0.0025,"dx":0.0025,"nx":19,"ny":19,"refTime":"2026-03-09T09:00:00:Z","depth":"2","parameterNumber":2,"parameterNumberName":"U-component_of_CURRENTS"},"data":[0,0,0,-0.1697,-0.1697,-0.1711,-0.1711,-0.1712,-0.1712,0,0,0,0,0,0,0,0,0,0,0,-0.1687,-0.1687,-0.1697,-0.1697,-0.1711,-0.1711,-0.1712,-0.1712,0,0,0,0,0,0,0,0,0,0,0,-0.1687,-0.1687,-0.1687,-0.1697,-0.1711,-0.1711,-0.1712,-0.1705,0,0,0,0,0,0,0,0,0,0,-0.1693,-0.1685,-0.1687,-0.1687,-0.1697,-0.1711,-0.1711,-0.1704,-0.1705,-0.1702,0,-0.1704,0,-0.1712,-0.1712,-0.1712,0,0,0,-0.1693,-0.1684,-0.1692,-0.1687,-0.1697,-0.1711,-0.1704,-0.1705,-0.1706,-0.1703,-0.1704,-0.1704,-0.1712,-0.1712,-0.1712,-0.173,-0.1731,0,0,-0.1692,-0.1685,-0.1692,-0.1693,-0.1701,-0.1703,-0.1704,-0.1705,-0.1703,-0.1704,-0.1705,-0.1712,-0.1712,-0.1712,-0.173,-0.173,0,0,0,-0.1693,-0.1684,-0.1693,-0.1693,-0.1699,-0.1704,-0.1705,-0.1703,-0.1707,-0.1705,-0.1712,-0.1712,-0.1712,-0.173,-0.173,-0.175,0,0,0,-0.1692,-0.1685,-0.1692,-0.1687,-0.1699,-0.1703,-0.1702,-0.1707,-0.1707,-0.1712,-0.1712,-0.1712,-0.173,-0.173,-0.1749,-0.1749,0,0,0,-0.1686,-0.1685,-0.1687,-0.1687,-0.1696,-0.1703,-0.1707,-0.1707,-0.1712,-0.1712,-0.1712,-0.173,-0.173,-0.1748,-0.1748,-0.1718,0,0,0,-0.1677,-0.1675,-0.1687,-0.1692,-0.1696,-0.1718,-0.1707,-0.1718,-0.1721,-0.1712,-0.173,-0.173,-0.1748,-0.1747,-0.1718,-0.1549,-0.1536,0,0,-0.1669,-0.1673,-0.1679,-0.1691,-0.1711,-0.1715,-0.1736,-0.1733,-0.1726,-0.1727,-0.1727,-0.175,-0.1748,-0.1718,-0.1577,-0.1563,0,0,0,-0.1674,-0.1675,-0.1685,-0.1701,-0.1722,-0.1741,-0.1745,-0.1746,-0.1749,-0.1731,-0.1754,-0.1752,-0.1732,-0.163,-0.162,-0.1732,-0.1732,-0.1732,-0.1732,-0.1637,-0.1663,-0.1676,-0.1709,-0.1729,-0.1757,-0.1768,-0.177,-0.1767,-0.1772,-0.1772,-0.1767,-0.1661,-0.165,-0.178,-0.178,-0.178,-0.178,-0.178,-0.1623,-0.1627,-0.1672,-0.1694,-0.1731,-0.1753,-0.1785,-0.1789,-0.1787,-0.1792,-0.1772,-0.1661,-0.1639,-0.1782,-0.1782,-0.1781,-0.1781,-0.1781,-0.1781,-0.1593,-0.1596,-0.1625,-0.1661,-0.1699,-0.1744,-0.1752,-0.1788,-0.1791,-0.179,-0.1646,-0.1643,-0.1757,-0.177,-0.177,-0.177,-0.177,-0.177,-0.177,-0.1537,-0.1568,-0.1573,-0.1624,-0.164,-0.1677,-0.1728,-0.172,-0.167,-0.1643,-0.1641,-0.1763,-0.1763,-0.1756,-0.1768,-0.1769,-0.1769,-0.1769,-0.1769,-0.1467,-0.149,-0.1492,-0.1505,-0.1539,-0.1497,-0.1587,-0.1509,-0.1511,-0.1441,-0.1542,-0.1548,-0.1515,-0.1521,-0.1507,-0.1455,-0.1455,-0.1455,-0.1455,-0.1402,-0.1422,-0.1396,-0.1391,-0.1394,-0.1402,-0.1256,-0.12,-0.1225,-0.1212,-0.1223,-0.1194,-0.1211,-0.116,-0.1175,-0.1155,-0.101,-0.101,-0.1009,-0.1334,-0.1347,-0.1294,-0.1312,-0.1311,-0.125,-0.1042,-0.0851,-0.0838,-0.0997,-0.1202,-0.1414,-0.1399,-0.1415,-0.1362,-0.1376,-0.1353,0,0]},{"header":{"parameterUnit":"m.s-1","parameterCategory":2,"la1":30.2992,"la2":30.254,"lo1":-89.0895,"lo2":-89.0443,"dy":0.0025,"dx":0.0025,"nx":19,"ny":19,"refTime":"2026-03-09T09:00:00:Z","depth":"2","parameterNumber":3,"parameterNumberName":"V-component_of_CURRENTS"},"data":[0,0,0,-0.0392,-0.0391,-0.0342,-0.0342,-0.0263,-0.0262,0,0,0,0,0,0,0,0,0,0,0,-0.0409,-0.0409,-0.0392,-0.0391,-0.0342,-0.0342,-0.0263,-0.0262,0,0,0,0,0,0,0,0,0,0,0,-0.0409,-0.0409,-0.0409,-0.0391,-0.0342,-0.0342,-0.0263,-0.0302,0,0,0,0,0,0,0,0,0,0,-0.0351,-0.0376,-0.0409,-0.0409,-0.039,-0.0342,-0.0342,-0.0304,-0.0299,-0.0283,0,-0.028,0,-0.0272,-0.0257,-0.0257,0,0,0,-0.0383,-0.038,-0.0364,-0.0408,-0.039,-0.0342,-0.0362,-0.0301,-0.0296,-0.0277,-0.0279,-0.0276,-0.0271,-0.0257,-0.0256,-0.0207,-0.0207,0,0,-0.0385,-0.04,-0.0367,-0.0361,-0.0384,-0.0363,-0.036,-0.0299,-0.0297,-0.0279,-0.0274,-0.027,-0.0256,-0.0255,-0.0207,-0.0207,0,0,0,-0.0399,-0.0402,-0.0387,-0.0364,-0.0358,-0.0362,-0.0359,-0.03,-0.0295,-0.0274,-0.0269,-0.0256,-0.0255,-0.0207,-0.0207,-0.0261,0,0,0,-0.04,-0.041,-0.0389,-0.0397,-0.036,-0.0332,-0.0362,-0.0299,-0.0292,-0.0269,-0.0256,-0.0254,-0.0207,-0.0207,-0.026,-0.0287,0,0,0,-0.041,-0.0411,-0.0407,-0.0398,-0.038,-0.0333,-0.0324,-0.0297,-0.0289,-0.0257,-0.0254,-0.0207,-0.0207,-0.0258,-0.0284,-0.0249,0,0,0,-0.0424,-0.0432,-0.0407,-0.0417,-0.038,-0.0365,-0.0324,-0.0306,-0.0283,-0.0255,-0.0207,-0.0207,-0.0258,-0.0282,-0.0249,-0.0208,-0.0208,0,0,-0.0445,-0.0435,-0.0442,-0.0419,-0.0424,-0.0371,-0.0364,-0.0316,-0.0275,-0.0225,-0.0223,-0.026,-0.0284,-0.0249,-0.021,-0.021,0,0,0,-0.0456,-0.0464,-0.046,-0.0457,-0.0431,-0.0407,-0.0357,-0.0324,-0.0279,-0.0262,-0.0246,-0.0259,-0.0235,-0.0208,-0.0209,-0.0207,-0.0207,-0.0207,-0.0207,-0.0503,-0.0493,-0.0511,-0.0497,-0.0481,-0.0428,-0.0399,-0.0342,-0.0304,-0.0289,-0.0292,-0.029,-0.0264,-0.0263,-0.0277,-0.0277,-0.0277,-0.0277,-0.0277,-0.0554,-0.0572,-0.0555,-0.0569,-0.0533,-0.0517,-0.0438,-0.0401,-0.0336,-0.0319,-0.0292,-0.0255,-0.0266,-0.0281,-0.0281,-0.028,-0.028,-0.0279,-0.0279,-0.0597,-0.0605,-0.0611,-0.0629,-0.0621,-0.0572,-0.0537,-0.0473,-0.0386,-0.037,-0.0288,-0.0286,-0.031,-0.0341,-0.0341,-0.0341,-0.0341,-0.0341,-0.0341,-0.0639,-0.0646,-0.068,-0.0689,-0.07,-0.0679,-0.0593,-0.0531,-0.0408,-0.0337,-0.0335,-0.031,-0.0308,-0.0312,-0.0341,-0.0341,-0.0341,-0.0341,-0.0341,-0.0694,-0.0695,-0.0751,-0.0773,-0.0788,-0.0767,-0.0676,-0.0507,-0.0418,-0.0338,-0.0292,-0.0294,-0.0261,-0.0259,-0.026,-0.0274,-0.0274,-0.0274,-0.0274,-0.0728,-0.0734,-0.0811,-0.0854,-0.0864,-0.0809,-0.0686,-0.0492,-0.032,-0.0245,-0.0247,-0.0241,-0.0244,-0.021,-0.021,-0.0209,-0.021,-0.021,-0.021,-0.0763,-0.0785,-0.0844,-0.0887,-0.0901,-0.0836,-0.0703,-0.0437,-0.0212,-0.0209,-0.0259,-0.0265,-0.0261,-0.0264,-0.0212,-0.0212,-0.0211,0,0]}],[{"header":{"parameterUnit":"m.s-1","parameterCategory":2,"la1":30.2992,"la2":30.254,"lo1":-89.0895,"lo2":-89.0443,"dy":0.0025,"dx":0.0025,"nx":19,"ny":19,"refTime":"2026-03-09T09:00:00:Z","depth":"4","parameterNumber":2,"parameterNumberName":"U-component_of_CURRENTS"},"data":[0,0,0,-0.1226,-0.1228,-0.1318,-0.1318,-0.137,-0.137,0,0,0,0,0,0,0,0,0,0,0,-0.1198,-0.1199,-0.1226,-0.1228,-0.1318,-0.1318,-0.137,-0.137,0,0,0,0,0,0,0,0,0,0,0,-0.1198,-0.1199,-0.12,-0.1228,-0.1318,-0.1318,-0.1369,-0.1317,0,0,0,0,0,0,0,0,0,0,-0.1237,-0.1225,-0.1199,-0.12,-0.1229,-0.1318,-0.1318,-0.1315,-0.132,-0.1311,0,-0.1333,0,-0.135,-0.1372,-0.1372,0,0,0,-0.1227,-0.1221,-0.1242,-0.12,-0.123,-0.1318,-0.1277,-0.1319,-0.1324,-0.1317,-0.1334,-0.1336,-0.1351,-0.1372,-0.1372,-0.1414,-0.1415,0,0,-0.1222,-0.1215,-0.1238,-0.1245,-0.1262,-0.1274,-0.128,-0.1323,-0.1333,-0.1334,-0.1338,-0.1352,-0.1372,-0.1373,-0.1414,-0.1415,0,0,0,-0.1208,-0.1212,-0.1233,-0.1243,-0.1263,-0.1277,-0.1283,-0.1331,-0.1338,-0.1338,-0.1353,-0.1372,-0.1373,-0.1414,-0.1414,-0.1433,0,0,0,-0.1205,-0.1204,-0.1231,-0.1228,-0.1263,-0.1308,-0.1291,-0.1335,-0.1341,-0.1352,-0.1373,-0.1373,-0.1414,-0.1414,-0.1432,-0.1426,0,0,0,-0.1192,-0.1202,-0.1215,-0.1227,-0.1266,-0.1308,-0.1318,-0.1337,-0.1349,-0.1372,-0.1373,-0.1414,-0.1414,-0.1431,-0.1425,-0.139,0,0,0,-0.1178,-0.1194,-0.1215,-0.1244,-0.1265,-0.1315,-0.1318,-0.1361,-0.1385,-0.1373,-0.1414,-0.1414,-0.1431,-0.1424,-0.139,-0.1202,0,0,0,-0.1183,-0.1195,-0.1211,-0.1232,-0.1274,-0.1302,-0.1347,-0.138,-0.1386,-0.1394,-0.1396,-0.1432,-0.1425,-0.139,-0.1237,0,0,0,0,-0.1202,-0.1214,-0.1232,-0.1267,-0.1306,-0.1345,-0.1383,-0.1394,-0.1423,-0.1403,-0.1438,-0.1433,-0.141,-0.1301,-0.1417,-0.1417,-0.1417,-0.1417,-0.1417,-0.1185,-0.1214,-0.1244,-0.1286,-0.1322,-0.1378,-0.1404,-0.1425,-0.1437,-0.1454,-0.1454,-0.1446,-0.1335,-0.1466,-0.1467,-0.1467,-0.1467,-0.1467,-0.1467,-0.1183,-0.1192,-0.1247,-0.1288,-0.1338,-0.1383,-0.1426,-0.1445,-0.1454,-0.1472,-0.1448,-0.1336,-0.1469,-0.1468,-0.1468,-0.1468,-0.1468,-0.1468,-0.1467,-0.1155,-0.116,-0.1208,-0.1266,-0.1324,-0.1385,-0.139,-0.1442,-0.1457,-0.1456,-0.131,-0.144,-0.143,-0.1441,-0.144,-0.144,-0.144,-0.144,-0.144,-0.1093,-0.1138,-0.1164,-0.1236,-0.1268,-0.1313,-0.137,-0.1354,-0.1389,-0.1296,-0.1452,-0.1436,-0.1437,-0.1427,-0.1437,-0.1438,-0.1438,-0.1438,-0.1439,-0.1027,-0.106,-0.108,-0.1112,-0.1164,-0.1177,-0.1263,-0.1194,-0.1152,-0.1089,-0.1193,-0.1206,-0.1169,-0.1176,-0.1156,-0.1086,-0.1084,-0.1081,0,-0.0965,-0.0988,-0.0989,-0.0995,-0.099,-0.1074,-0.097,-0.0976,-0.0999,-0.097,-0.1156,-0.1277,-0.1284,-0.1248,-0.125,-0.1229,0,0,0,-0.0907,-0.0918,-0.0883,-0.0908,-0.0893,-0.0872,-0.0931,-0.0873,-0.102,-0.0914,-0.102,-0.1036,-0.128,-0.143,-0.1403,-0.1404,-0.1387,0,0]},{"header":{"parameterUnit":"m.s-1","parameterCategory":2,"la1":30.2992,"la2":30.254,"lo1":-89.0895,"lo2":-89.0443,"dy":0.0025,"dx":0.0025,"nx":19,"ny":19,"refTime":"2026-03-09T09:00:00:Z","depth":"4","parameterNumber":3,"parameterNumberName":"V-component_of_CURRENTS"},"data":[0,0,0,-0.0314,-0.0314,-0.029,-0.029,-0.0236,-0.0235,0,0,0,0,0,0,0,0,0,0,0,-0.0323,-0.0323,-0.0314,-0.0314,-0.029,-0.029,-0.0236,-0.0235,0,0,0,0,0,0,0,0,0,0,0,-0.0323,-0.0323,-0.0323,-0.0314,-0.029,-0.029,-0.0236,-0.0258,0,0,0,0,0,0,0,0,0,0,-0.0283,-0.0302,-0.0323,-0.0323,-0.0314,-0.0291,-0.029,-0.0259,-0.0257,-0.0241,0,-0.0244,0,-0.024,-0.0232,-0.0231,0,0,0,-0.0307,-0.0304,-0.0295,-0.0323,-0.0314,-0.0291,-0.0299,-0.0258,-0.0255,-0.0238,-0.0243,-0.0241,-0.0239,-0.0231,-0.0231,-0.0202,-0.0202,0,0,-0.0308,-0.0319,-0.0297,-0.0293,-0.0315,-0.03,-0.0298,-0.0256,-0.0258,-0.0243,-0.024,-0.0238,-0.0231,-0.023,-0.0201,-0.0202,0,0,0,-0.0317,-0.032,-0.0312,-0.0295,-0.0294,-0.0299,-0.0298,-0.0259,-0.0256,-0.0239,-0.0238,-0.0231,-0.023,-0.0201,-0.0201,-0.0251,0,0,0,-0.0317,-0.0326,-0.0313,-0.0319,-0.0295,-0.0281,-0.0302,-0.0259,-0.0254,-0.0238,-0.023,-0.0229,-0.0201,-0.0201,-0.025,-0.0277,0,0,0,-0.0323,-0.0326,-0.0325,-0.032,-0.0312,-0.0282,-0.0276,-0.0258,-0.0253,-0.0231,-0.0229,-0.0201,-0.0201,-0.0248,-0.0274,-0.0263,0,0,0,-0.0332,-0.034,-0.0326,-0.0336,-0.0313,-0.0307,-0.0276,-0.0268,-0.0253,-0.023,-0.0201,-0.0201,-0.0248,-0.0272,-0.0262,-0.0246,0,0,0,-0.0347,-0.0343,-0.0349,-0.0335,-0.0345,-0.0309,-0.0313,-0.028,-0.0248,-0.0212,-0.0211,-0.025,-0.0274,-0.0263,-0.0257,0,0,0,0,-0.0357,-0.0365,-0.0364,-0.0367,-0.0353,-0.0346,-0.0312,-0.0291,-0.0263,-0.0241,-0.024,-0.0253,-0.0244,-0.0231,-0.0202,-0.0202,-0.0202,-0.0202,-0.0202,-0.0392,-0.0388,-0.0406,-0.0401,-0.0395,-0.0368,-0.0355,-0.0319,-0.0286,-0.028,-0.0286,-0.0303,-0.0291,-0.0273,-0.0274,-0.0274,-0.0274,-0.0274,-0.0274,-0.0428,-0.0442,-0.0441,-0.0459,-0.0445,-0.0444,-0.0397,-0.0373,-0.0339,-0.0317,-0.0305,-0.0276,-0.0279,-0.0278,-0.0277,-0.0277,-0.0276,-0.0276,-0.0276,-0.0454,-0.0461,-0.0477,-0.0506,-0.0519,-0.0496,-0.0487,-0.0446,-0.0387,-0.0383,-0.0336,-0.0325,-0.0328,-0.0367,-0.0368,-0.0368,-0.0368,-0.0368,-0.0368,-0.0474,-0.0489,-0.0528,-0.0554,-0.0578,-0.0581,-0.0542,-0.0506,-0.0444,-0.0389,-0.0391,-0.0334,-0.033,-0.0332,-0.0369,-0.0369,-0.0369,-0.0369,-0.0369,-0.05,-0.0514,-0.0571,-0.0605,-0.0649,-0.0639,-0.0609,-0.0511,-0.0469,-0.041,-0.0375,-0.0374,-0.0348,-0.0344,-0.0345,-0.0388,-0.0388,-0.0388,0,-0.0518,-0.0528,-0.0611,-0.0666,-0.069,-0.0671,-0.06,-0.0542,-0.0454,-0.0446,-0.0472,-0.0438,-0.0435,-0.0411,-0.0407,-0.0411,0,0,0,-0.0538,-0.0562,-0.0622,-0.068,-0.0708,-0.0622,-0.0576,-0.0535,-0.047,-0.0413,-0.0386,-0.0386,-0.0407,-0.0373,-0.0331,-0.0327,-0.0326,0,0]}]]